Regional Weather Roundup
Issued by NWS

Home | Current Version | Previous Version | Text Only | Print | Product List | Glossary On
Versions: 1 2 3 4 5 6 7 8 9 10 11 12 13 14 15 16 17 18 19 20 21 22 23 24 25 26 27 28 29 30 31 32 33 34 35 36 37 38 39 40 41 42 43 44 45 46 47 48 49 50
000
ASUS43 KLMK 221410
RWRKY
NATIONAL WEATHER SERVICE LOUISVILLE KY
900 AM EST SAT NOV 22 2014

NOTE "FAIR" INDICATES FEW OR NO CLOUDS BELOW 12,000 FEET
WITH NO SIGNIFICANT WEATHER AND/OR OBSTRUCTIONS TO VISIBILITY.

KYZ001>023-026-027-061>063-070>075-221500-
WESTERN AND SOUTH CENTRAL KENTUCKY

CITY           SKY/WX    TMP DP  RH WIND       PRES   REMARKS
PADUCAH        CLOUDY    54  41  61 S12       30.25S
HENDERSON      CLOUDY    52  37  58 S15       30.24S
OWENSBORO      CLOUDY    50  40  68 S12       30.27F
HOPKINSVILLE   PTSUNNY   53  38  56 S9        30.31S
BOWLING GREEN  CLOUDY    51  31  46 S8        30.33S
GLASGOW        CLOUDY    49  27  41 S8G17     30.33S
$$

KYZ024-025-028>034-038-045-046-053-221500-
NORTH CENTRAL KENTUCKY

CITY           SKY/WX    TMP DP  RH WIND       PRES   REMARKS
LOUISVILLE/SDF CLOUDY    49  33  54 S12       30.29S
LOUISVILLE/LOU CLOUDY    46  32  58 S6        30.30S
FORT KNOX      CLOUDY    48  37  66 S9        30.29S
$$

KYZ035>037-039>044-047>052-055>060-089>105-221500-
NORTHEAST KENTUCKY

CITY           SKY/WX    TMP DP  RH WIND       PRES   REMARKS
LEXINGTON      MOSUNNY   44  25  47 S13       30.32S
COVINGTON      CLOUDY    40  29  64 S9        30.27S WCI  34
FRANKFORT      PTSUNNY   45  30  55 S6        30.30S
$$

KYZ054-064>069-076>088-106>120-221500-
SOUTHEAST KENTUCKY

CITY           SKY/WX    TMP DP  RH WIND       PRES   REMARKS
JACKSON        MOSUNNY   42  19  39 S6        30.36S
LONDON         MOSUNNY   37  22  54 CALM      30.38S
SOMERSET       PTSUNNY   43  27  52 S6        30.39S
MIDDLESBORO    MOSUNNY   29  25  84 CALM      30.44R
MONTICELLO     MOSUNNY   51  27  39 S10       30.40S
$$




USA.gov is the U.S. government's official web portal to all federal, state and local government web resources and services.